📊 Raw Sensor Data
Showing records 47501 to 47525 of 85,086 total
| ID | Distance (ft) | Battery V | Battery A | Int Temp (°F) | Int Humid (%) | Ext Temp (°F) | Solar V | RSSI | SNR | Time Stamp |
|---|---|---|---|---|---|---|---|---|---|---|
| 37598 | -- | 3.89 | 0 | 62 | 39 | 63 | 5.10 | -71 | 9 | 04/12/2025 09:45 AM |
| 37597 | -- | 3.84 | 0 | 61 | 38 | 65 | 5.10 | -70 | 8 | 04/12/2025 09:30 AM |
| 37596 | -- | 3.91 | 5 | 59 | 38 | 65 | 5.10 | -70 | 9 | 04/12/2025 09:15 AM |
| 37595 | -- | 3.83 | 0 | 57 | 38 | 62 | 5.10 | -70 | 9 | 04/12/2025 09:00 AM |
| 37594 | -- | 4.09 | 0 | 56 | 38 | 60 | 5.10 | -69 | 9 | 04/12/2025 08:45 AM |
| 37593 | -- | 3.83 | 0 | 54 | 38 | 59 | 5.10 | -71 | 9 | 04/12/2025 08:30 AM |
| 37592 | -- | 3.84 | 5 | 53 | 38 | 57 | 5.10 | -71 | 9 | 04/12/2025 08:15 AM |
| 37591 | -- | 4.05 | 84 | 51 | 39 | 58 | 4.50 | -70 | 8 | 04/12/2025 08:00 AM |
| 37590 | -- | 3.97 | 46 | 49 | 39 | 56 | 4.50 | -71 | 8 | 04/12/2025 07:46 AM |
| 37589 | -- | 3.87 | 35 | 47 | 40 | 54 | 4.50 | -72 | 8 | 04/12/2025 07:30 AM |
| 37588 | -- | 3.83 | -6 | 45 | 40 | 50 | 4.50 | -70 | 8 | 04/12/2025 07:15 AM |
| 37587 | -- | 3.79 | 0 | 45 | 40 | 48 | 4.50 | -71 | 9 | 04/12/2025 07:00 AM |
| 37586 | -- | 3.82 | -6 | 45 | 40 | 46 | 4.50 | -71 | 8 | 04/12/2025 06:45 AM |
| 37585 | -- | 3.77 | -7 | 45 | 40 | 46 | 1.60 | -70 | 8 | 04/12/2025 06:30 AM |
| 37584 | -- | 3.77 | -5 | 45 | 40 | 47 | 0.10 | -70 | 8 | 04/12/2025 06:15 AM |
| 37583 | -- | 3.82 | -5 | 45 | 40 | 47 | 0.00 | -70 | 8 | 04/12/2025 06:01 AM |
| 37582 | -- | 3.77 | -5 | 45 | 41 | 47 | 0.00 | -70 | 8 | 04/12/2025 05:45 AM |
| 37581 | -- | 3.83 | -5 | 45 | 40 | 47 | 0.00 | -71 | 8 | 04/12/2025 05:30 AM |
| 37580 | -- | 3.78 | -5 | 46 | 40 | 47 | 0.00 | -70 | 7 | 04/12/2025 05:15 AM |
| 37579 | -- | 3.83 | -5 | 46 | 40 | 48 | 0.00 | -70 | 8 | 04/12/2025 05:00 AM |
| 37578 | -- | 3.78 | -5 | 46 | 41 | 48 | 0.00 | -70 | 8 | 04/12/2025 04:45 AM |
| 37577 | -- | 3.78 | -5 | 45 | 41 | 47 | 0.00 | -71 | 8 | 04/12/2025 04:30 AM |
| 37576 | -- | 3.78 | -5 | 45 | 41 | 47 | 0.10 | -70 | 8 | 04/12/2025 04:15 AM |
| 37575 | -- | 3.78 | -5 | 46 | 41 | 47 | 0.00 | -70 | 8 | 04/12/2025 04:00 AM |
| 37574 | -- | 3.78 | -5 | 46 | 41 | 48 | 0.00 | -71 | 8 | 04/12/2025 03:45 AM |